VSV813 UACC-UUWW

Flight info

Callsign VSV813
Flight time 3h 18m
Altitude 38000
Route N0450F380 KODOL T523 ATBAN L994 TITUR N985 ORTIM L158 DIMGI
Aircraft B38M/M-SDE1FGHILORVWXY/HB1

Departure

Time 2026-04-24 12:08
Airport Nursultan Nazarbayev International Airport (UACC)

Arrival

Time 2026-04-24 15:27
Airport Vnukovo International Airport (UUWW)
Time Latitude Longitude Altitude Speed Heading
2026-04-24 11:42 51.02528 71.45818 1166 ft 0 kts 44°
2026-04-24 12:03 51.02538 71.45834 1163 ft 4 kts 44°
2026-04-24 12:03 51.02554 71.45892 1163 ft 7 kts 91°
2026-04-24 12:04 51.02513 71.45980 1166 ft 13 kts 134°
2026-04-24 12:04 51.02466 71.46070 1166 ft 7 kts 142°
2026-04-24 12:04 51.02417 71.46135 1166 ft 13 kts 136°
2026-04-24 12:04 51.02350 71.46266 1166 ft 15 kts 92°
2026-04-24 12:05 51.02413 71.46401 1166 ft 17 kts 44°
2026-04-24 12:05 51.02510 71.46552 1166 ft 22 kts 45°
2026-04-24 12:05 51.02631 71.46736 1166 ft 25 kts 42°
2026-04-24 12:05 51.02759 71.46937 1165 ft 26 kts 46°
2026-04-24 12:06 51.02890 71.47147 1166 ft 27 kts 44°
2026-04-24 12:06 51.03029 71.47360 1166 ft 28 kts 44°
2026-04-24 12:06 51.03168 71.47578 1166 ft 29 kts 44°
2026-04-24 12:06 51.03302 71.47788 1165 ft 25 kts 44°
2026-04-24 12:07 51.03411 71.47965 1164 ft 19 kts 60°
2026-04-24 12:07 51.03428 71.48170 1166 ft 19 kts 89°
2026-04-24 12:07 51.03383 71.48326 1166 ft 12 kts 162°
2026-04-24 12:07 51.03305 71.48259 1167 ft 18 kts 224°
2026-04-24 12:08 51.03177 71.48058 1168 ft 63 kts 225°
2026-04-24 12:08 51.02703 71.47317 1167 ft 127 kts 224°
2026-04-24 12:08 51.01959 71.46128 1241 ft 169 kts 225°
2026-04-24 12:08 51.01101 71.44787 1879 ft 177 kts 225°
2026-04-24 12:09 51.00235 71.43450 2819 ft 167 kts 225°
2026-04-24 12:09 50.99410 71.42163 3621 ft 168 kts 225°
2026-04-24 12:09 50.98567 71.40854 4354 ft 170 kts 226°
2026-04-24 12:09 50.97676 71.39470 4863 ft 189 kts 225°
2026-04-24 12:10 50.96677 71.37922 5240 ft 215 kts 225°
2026-04-24 12:10 50.95712 71.35949 5665 ft 238 kts 244°
2026-04-24 12:10 50.95345 71.33308 6253 ft 258 kts 271°
2026-04-24 12:11 50.96053 71.28572 7750 ft 265 kts 279°
2026-04-24 12:11 50.96473 71.25701 8653 ft 268 kts 279°
2026-04-24 12:11 50.96901 71.22803 9559 ft 271 kts 279°
2026-04-24 12:11 50.97330 71.19907 10346 ft 277 kts 279°
2026-04-24 12:12 50.97782 71.16838 10754 ft 296 kts 279°
2026-04-24 12:12 50.98431 71.12435 11391 ft 315 kts 279°
2026-04-24 12:12 50.98765 71.10179 11891 ft 317 kts 279°
2026-04-24 12:12 50.99273 71.06756 12692 ft 321 kts 279°
2026-04-24 12:13 50.99789 71.03278 13437 ft 325 kts 279°
2026-04-24 12:13 51.00373 70.99785 14185 ft 329 kts 281°
2026-04-24 12:13 51.00975 70.96250 14893 ft 333 kts 281°
2026-04-24 12:13 51.01577 70.92692 15601 ft 336 kts 281°
2026-04-24 12:14 51.02184 70.89081 16304 ft 339 kts 281°
2026-04-24 12:14 51.02881 70.85479 16981 ft 346 kts 290°
2026-04-24 12:14 51.03927 70.82023 17683 ft 349 kts 291°
2026-04-24 12:14 51.04943 70.78492 18332 ft 352 kts 290°
2026-04-24 12:15 51.05949 70.74932 18908 ft 355 kts 290°
2026-04-24 12:15 51.06939 70.71381 19465 ft 357 kts 290°
2026-04-24 12:15 51.07946 70.67741 20035 ft 360 kts 290°
2026-04-24 12:15 51.08954 70.64083 20597 ft 363 kts 291°
2026-04-24 12:16 51.09967 70.60394 21148 ft 365 kts 291°
2026-04-24 12:16 51.13123 70.48859 22795 ft 374 kts 291°
2026-04-24 12:17 51.14168 70.45027 23333 ft 377 kts 291°
2026-04-24 12:17 51.15216 70.41175 23786 ft 380 kts 291°
2026-04-24 12:17 51.16269 70.37299 24224 ft 382 kts 291°
2026-04-24 12:17 51.17312 70.33455 24651 ft 384 kts 291°
2026-04-24 12:18 51.18389 70.29482 25084 ft 387 kts 291°
2026-04-24 12:18 51.19457 70.25531 25503 ft 389 kts 291°
2026-04-24 12:18 51.20530 70.21557 25916 ft 391 kts 291°
2026-04-24 12:18 51.21591 70.17616 26314 ft 393 kts 291°
2026-04-24 12:19 51.22674 70.13591 26712 ft 395 kts 291°
2026-04-24 12:19 51.23758 70.09555 27123 ft 397 kts 291°
2026-04-24 12:19 51.24852 70.05475 27497 ft 400 kts 291°
2026-04-24 12:19 51.25947 70.01385 27876 ft 402 kts 291°
2026-04-24 12:20 51.27051 69.97258 28264 ft 404 kts 291°
2026-04-24 12:20 51.28384 69.93292 28605 ft 408 kts 304°
2026-04-24 12:20 51.30068 69.89631 28987 ft 410 kts 303°
2026-04-24 12:20 51.31728 69.85919 29297 ft 412 kts 303°
2026-04-24 12:21 51.33404 69.82193 29665 ft 414 kts 303°
2026-04-24 12:21 51.35093 69.78441 29997 ft 416 kts 304°
2026-04-24 12:21 51.36774 69.74704 30300 ft 418 kts 303°
2026-04-24 12:21 51.38477 69.70915 30580 ft 420 kts 303°
2026-04-24 12:22 51.40183 69.67113 30867 ft 421 kts 303°
2026-04-24 12:22 51.41895 69.63292 31150 ft 423 kts 303°
2026-04-24 12:22 51.43612 69.59457 31420 ft 424 kts 303°
2026-04-24 12:22 51.45335 69.55602 31703 ft 426 kts 303°
2026-04-24 12:23 51.47062 69.51730 31982 ft 427 kts 303°
2026-04-24 12:23 51.48800 69.47830 32311 ft 427 kts 303°
2026-04-24 12:23 51.50505 69.43997 32686 ft 426 kts 302°
2026-04-24 12:23 51.52223 69.40129 33063 ft 425 kts 302°
2026-04-24 12:24 51.53937 69.36266 33437 ft 424 kts 302°
2026-04-24 12:24 51.55646 69.32407 33801 ft 423 kts 302°
2026-04-24 12:24 51.57347 69.28559 34127 ft 422 kts 302°
2026-04-24 12:24 51.59050 69.24702 34398 ft 422 kts 302°
2026-04-24 12:25 51.60747 69.20854 34633 ft 422 kts 302°
2026-04-24 12:25 51.62445 69.16998 34876 ft 422 kts 302°
2026-04-24 12:25 51.64147 69.13126 35121 ft 422 kts 302°
2026-04-24 12:25 51.65844 69.09259 35365 ft 422 kts 302°
2026-04-24 12:26 51.67521 69.05432 35595 ft 423 kts 302°
2026-04-24 12:26 51.69213 69.01566 35818 ft 423 kts 302°
2026-04-24 12:26 51.70913 68.97675 35952 ft 425 kts 301°
2026-04-24 12:27 51.74306 68.89893 35952 ft 422 kts 301°
2026-04-24 12:27 51.77679 68.82135 35949 ft 422 kts 301°
2026-04-24 12:28 51.81045 68.74365 35945 ft 422 kts 301°
2026-04-24 12:28 51.84411 68.66575 35945 ft 422 kts 301°
2026-04-24 12:29 51.87769 68.58780 35937 ft 422 kts 301°
2026-04-24 12:29 51.91122 68.50973 35939 ft 422 kts 301°
2026-04-24 12:30 51.94443 68.43221 35937 ft 421 kts 301°
2026-04-24 12:30 51.97676 68.35299 35920 ft 417 kts 292°
2026-04-24 12:31 52.00081 68.26747 35922 ft 417 kts 291°
2026-04-24 12:31 52.02499 68.18192 35926 ft 417 kts 291°
2026-04-24 12:32 52.04896 68.09675 35926 ft 416 kts 291°
2026-04-24 12:32 52.07296 68.01116 35924 ft 416 kts 291°
2026-04-24 12:33 52.09686 67.92560 35920 ft 415 kts 291°
2026-04-24 12:33 52.12071 67.83992 35916 ft 415 kts 291°
2026-04-24 12:34 52.14446 67.75428 35916 ft 415 kts 291°
2026-04-24 12:34 52.16813 67.66860 35917 ft 414 kts 291°
2026-04-24 12:35 52.19158 67.58349 35910 ft 414 kts 291°
2026-04-24 12:35 52.21520 67.49730 35911 ft 414 kts 290°
2026-04-24 12:36 52.23852 67.41194 35908 ft 414 kts 290°
2026-04-24 12:36 52.26188 67.32611 35906 ft 414 kts 290°
2026-04-24 12:37 52.28517 67.24023 35902 ft 413 kts 290°
2026-04-24 12:37 52.30840 67.15426 35904 ft 413 kts 290°
2026-04-24 12:38 52.33155 67.06824 35901 ft 413 kts 290°
2026-04-24 12:38 52.35466 66.98209 35899 ft 413 kts 290°
2026-04-24 12:39 52.40066 66.80957 35898 ft 413 kts 290°
2026-04-24 12:40 52.42336 66.72317 35887 ft 412 kts 289°
2026-04-24 12:40 52.44564 66.63653 35888 ft 412 kts 289°
2026-04-24 12:41 52.46412 66.56450 35887 ft 412 kts 289°
2026-04-24 12:41 52.48637 66.47755 35885 ft 412 kts 289°
2026-04-24 12:42 52.50832 66.39148 35884 ft 412 kts 289°
2026-04-24 12:42 52.53036 66.30466 35881 ft 411 kts 288°
2026-04-24 12:43 52.55231 66.21786 35883 ft 411 kts 288°
2026-04-24 12:43 52.57419 66.13102 35881 ft 411 kts 288°
2026-04-24 12:44 52.59596 66.04427 35873 ft 410 kts 288°
2026-04-24 12:44 52.61770 65.95730 35874 ft 410 kts 288°
2026-04-24 12:45 52.63933 65.87045 35871 ft 410 kts 288°
2026-04-24 12:45 52.66076 65.78405 35867 ft 410 kts 288°
2026-04-24 12:46 52.68227 65.69694 35864 ft 409 kts 288°
2026-04-24 12:46 52.70368 65.60996 35856 ft 409 kts 288°
2026-04-24 12:47 52.72501 65.52298 35982 ft 408 kts 287°
2026-04-24 12:47 52.73551 65.48005 36151 ft 409 kts 287°
2026-04-24 12:47 52.74618 65.43642 36321 ft 411 kts 288°
2026-04-24 12:47 52.75723 65.39290 36488 ft 412 kts 288°
2026-04-24 12:48 52.76831 65.34926 36650 ft 413 kts 288°
2026-04-24 12:48 52.77942 65.30533 36831 ft 413 kts 288°
2026-04-24 12:48 52.79049 65.26144 37003 ft 414 kts 288°
2026-04-24 12:48 52.80150 65.21753 37185 ft 414 kts 287°
2026-04-24 12:49 52.81216 65.17327 37391 ft 414 kts 287°
2026-04-24 12:49 52.82281 65.12902 37619 ft 413 kts 287°
2026-04-24 12:49 52.83340 65.08499 37794 ft 413 kts 287°
2026-04-24 12:50 52.85461 64.99666 37849 ft 416 kts 287°
2026-04-24 12:50 52.87591 64.90757 37847 ft 416 kts 287°
2026-04-24 12:51 52.89716 64.81832 37844 ft 416 kts 287°
2026-04-24 12:51 52.91817 64.72973 37839 ft 415 kts 287°
2026-04-24 12:52 52.93926 64.64042 37848 ft 416 kts 287°
2026-04-24 12:52 52.96029 64.55102 37844 ft 416 kts 286°
2026-04-24 12:53 52.98126 64.46154 37843 ft 416 kts 286°
2026-04-24 12:53 53.00208 64.37226 37841 ft 416 kts 286°
2026-04-24 12:54 53.02298 64.28228 37830 ft 416 kts 286°
2026-04-24 12:54 53.04373 64.19255 37829 ft 416 kts 286°
2026-04-24 12:55 53.06444 64.10265 37826 ft 416 kts 286°
2026-04-24 12:55 53.08513 64.01244 37827 ft 417 kts 286°
2026-04-24 12:56 53.10571 63.92232 37827 ft 417 kts 286°
2026-04-24 12:56 53.12613 63.83252 37827 ft 417 kts 286°
2026-04-24 12:57 53.14660 63.74210 37832 ft 418 kts 285°
2026-04-24 12:57 53.16709 63.65136 37831 ft 418 kts 285°
2026-04-24 12:58 53.18679 63.56019 37819 ft 414 kts 278°
2026-04-24 12:58 53.19642 63.46607 37823 ft 412 kts 275°
2026-04-24 12:59 53.20577 63.37167 37830 ft 412 kts 275°
2026-04-24 12:59 53.21491 63.27777 37828 ft 412 kts 275°
2026-04-24 13:00 53.22403 63.18325 37825 ft 412 kts 275°
2026-04-24 13:00 53.23306 63.08886 37832 ft 411 kts 275°
2026-04-24 13:01 53.24199 62.99457 37824 ft 411 kts 275°
2026-04-24 13:01 53.25086 62.90020 37826 ft 411 kts 275°
2026-04-24 13:02 53.25967 62.80556 37837 ft 411 kts 275°
2026-04-24 13:02 53.26840 62.71107 37834 ft 411 kts 275°
2026-04-24 13:03 53.27699 62.61717 37844 ft 412 kts 274°
2026-04-24 13:03 53.28559 62.52253 37839 ft 412 kts 274°
2026-04-24 13:04 53.29417 62.42759 37847 ft 412 kts 274°
2026-04-24 13:04 53.30268 62.33269 37853 ft 413 kts 274°
2026-04-24 13:05 53.31113 62.23761 37853 ft 413 kts 274°
2026-04-24 13:05 53.31948 62.14284 37847 ft 414 kts 274°
2026-04-24 13:06 53.32780 62.04742 37852 ft 414 kts 274°
2026-04-24 13:06 53.33606 61.95180 37855 ft 415 kts 274°
2026-04-24 13:07 53.34423 61.85631 37857 ft 415 kts 274°
2026-04-24 13:07 53.35228 61.76116 37863 ft 415 kts 274°
2026-04-24 13:08 53.36031 61.66549 37864 ft 415 kts 273°
2026-04-24 13:08 53.36828 61.56961 37861 ft 415 kts 273°
2026-04-24 13:09 53.38005 61.42617 37867 ft 416 kts 273°
2026-04-24 13:09 53.38781 61.33026 37872 ft 416 kts 273°
2026-04-24 13:10 53.39554 61.23405 37865 ft 416 kts 273°
2026-04-24 13:10 53.40799 61.13922 37857 ft 425 kts 290°
2026-04-24 13:11 53.43303 61.04902 37863 ft 428 kts 289°
2026-04-24 13:11 53.45859 60.95847 37862 ft 429 kts 290°
2026-04-24 13:12 53.48413 60.86877 37861 ft 429 kts 290°
2026-04-24 13:12 53.50992 60.77799 37863 ft 430 kts 290°
2026-04-24 13:13 53.53562 60.68717 37857 ft 430 kts 290°
2026-04-24 13:13 53.56113 60.59672 37854 ft 430 kts 289°
2026-04-24 13:14 53.58673 60.50554 37855 ft 430 kts 289°
2026-04-24 13:14 53.61225 60.41431 37848 ft 431 kts 289°
2026-04-24 13:15 53.63771 60.32295 37840 ft 431 kts 289°
2026-04-24 13:15 53.66316 60.23122 37840 ft 431 kts 289°
2026-04-24 13:16 53.68850 60.13961 37836 ft 431 kts 289°
2026-04-24 13:16 53.71380 60.04762 37834 ft 431 kts 289°
2026-04-24 13:17 53.73887 59.95612 37827 ft 431 kts 289°
2026-04-24 13:17 53.76402 59.86396 37830 ft 432 kts 289°
2026-04-24 13:18 53.78911 59.77169 37815 ft 431 kts 289°
2026-04-24 13:18 53.81410 59.67938 37808 ft 432 kts 289°
2026-04-24 13:19 53.83904 59.58690 37810 ft 432 kts 289°
2026-04-24 13:19 53.86393 59.49421 37806 ft 432 kts 289°
2026-04-24 13:20 53.88857 59.40214 37805 ft 432 kts 289°
2026-04-24 13:20 53.89891 59.35468 37794 ft 424 kts 278°
2026-04-24 13:20 53.90612 59.30606 37795 ft 425 kts 280°
2026-04-24 13:21 53.92116 59.20890 37797 ft 426 kts 279°
2026-04-24 13:21 53.93606 59.11153 37796 ft 426 kts 279°
2026-04-24 13:22 53.95085 59.01416 37790 ft 426 kts 279°
2026-04-24 13:22 53.96549 58.91722 37795 ft 427 kts 279°
2026-04-24 13:23 53.98017 58.81941 37786 ft 427 kts 279°
2026-04-24 13:23 53.99476 58.72163 37788 ft 427 kts 279°
2026-04-24 13:24 54.00929 58.62360 37781 ft 427 kts 279°
2026-04-24 13:24 54.02376 58.52543 37778 ft 427 kts 279°
2026-04-24 13:25 54.04030 58.42828 37779 ft 431 kts 286°
2026-04-24 13:25 54.06086 58.33296 37779 ft 431 kts 284°
2026-04-24 13:26 54.08087 58.23671 37780 ft 431 kts 284°
2026-04-24 13:26 54.09738 58.15657 37769 ft 430 kts 284°
2026-04-24 13:27 54.11716 58.06019 37774 ft 431 kts 284°
2026-04-24 13:27 54.13688 57.96358 37769 ft 431 kts 284°
2026-04-24 13:28 54.15647 57.86712 37771 ft 431 kts 284°
2026-04-24 13:28 54.17606 57.77020 37770 ft 431 kts 284°
2026-04-24 13:29 54.19544 57.67386 37757 ft 431 kts 284°
2026-04-24 13:29 54.21483 57.57698 37753 ft 431 kts 284°
2026-04-24 13:30 54.23420 57.47973 37764 ft 431 kts 284°
2026-04-24 13:30 54.25344 57.38264 37757 ft 431 kts 284°
2026-04-24 13:31 54.27263 57.28541 37759 ft 431 kts 284°
2026-04-24 13:31 54.29179 57.18806 37757 ft 431 kts 283°
2026-04-24 13:32 54.31094 57.09053 37754 ft 431 kts 283°
2026-04-24 13:32 54.33002 56.99295 37747 ft 431 kts 283°
2026-04-24 13:33 54.34887 56.89601 37750 ft 431 kts 283°
2026-04-24 13:33 54.36776 56.79840 37736 ft 431 kts 283°
2026-04-24 13:34 54.38657 56.70071 37746 ft 431 kts 283°
2026-04-24 13:34 54.40533 56.60277 37746 ft 432 kts 283°
2026-04-24 13:35 54.42404 56.50458 37746 ft 432 kts 283°
2026-04-24 13:35 54.44264 56.40656 37744 ft 432 kts 283°
2026-04-24 13:36 54.46115 56.30832 37742 ft 432 kts 283°
2026-04-24 13:36 54.47960 56.20992 37742 ft 432 kts 283°
2026-04-24 13:37 54.49785 56.11210 37746 ft 432 kts 283°
2026-04-24 13:37 54.51611 56.01372 37753 ft 432 kts 283°
2026-04-24 13:38 54.53435 55.91496 37751 ft 432 kts 283°
2026-04-24 13:38 54.55220 55.81599 37747 ft 432 kts 282°
2026-04-24 13:39 54.56994 55.71698 37750 ft 432 kts 282°
2026-04-24 13:39 54.58750 55.61847 37747 ft 432 kts 282°
2026-04-24 13:40 54.60505 55.51920 37739 ft 432 kts 282°
2026-04-24 13:40 54.62247 55.42022 37732 ft 432 kts 282°
2026-04-24 13:41 54.63989 55.32066 37723 ft 432 kts 282°
2026-04-24 13:41 54.65704 55.22106 37715 ft 432 kts 281°
2026-04-24 13:42 54.67335 55.12111 37715 ft 432 kts 281°
2026-04-24 13:42 54.68967 55.02105 37704 ft 432 kts 281°
2026-04-24 13:43 54.70578 54.92174 37707 ft 432 kts 281°
2026-04-24 13:43 54.72202 54.82089 37700 ft 432 kts 281°
2026-04-24 13:44 54.73802 54.72059 37700 ft 432 kts 281°
2026-04-24 13:44 54.75398 54.61996 37701 ft 433 kts 281°
2026-04-24 13:45 54.76985 54.51929 37698 ft 433 kts 280°
2026-04-24 13:45 54.78564 54.41847 37697 ft 433 kts 280°
2026-04-24 13:46 54.80126 54.31820 37693 ft 434 kts 280°
2026-04-24 13:46 54.81695 54.21691 37682 ft 434 kts 280°
2026-04-24 13:47 54.83262 54.11583 37686 ft 435 kts 280°
2026-04-24 13:47 54.84827 54.01433 37681 ft 435 kts 280°
2026-04-24 13:48 54.86386 53.91268 37676 ft 435 kts 280°
2026-04-24 13:48 54.87935 53.81097 37672 ft 436 kts 280°
2026-04-24 13:49 54.89478 53.70906 37667 ft 436 kts 280°
2026-04-24 13:49 54.91020 53.60689 37671 ft 436 kts 280°
2026-04-24 13:50 54.92553 53.50485 37663 ft 437 kts 280°
2026-04-24 13:50 54.94081 53.40250 37657 ft 437 kts 280°
2026-04-24 13:51 54.95603 53.29995 37670 ft 437 kts 280°
2026-04-24 13:51 54.97119 53.19664 37650 ft 438 kts 280°
2026-04-24 13:52 54.98616 53.09394 37648 ft 438 kts 280°
2026-04-24 13:52 55.00106 52.99107 37660 ft 438 kts 280°
2026-04-24 13:53 55.01587 52.88812 37644 ft 438 kts 279°
2026-04-24 13:53 55.03063 52.78497 37642 ft 439 kts 280°
2026-04-24 13:54 55.04534 52.68148 37638 ft 439 kts 279°
2026-04-24 13:54 55.05991 52.57833 37632 ft 439 kts 279°
2026-04-24 13:55 55.07446 52.47464 37629 ft 439 kts 279°
2026-04-24 13:55 55.08892 52.37090 37628 ft 439 kts 279°
2026-04-24 13:56 55.10328 52.26717 37623 ft 440 kts 279°
2026-04-24 13:56 55.11759 52.16308 37616 ft 440 kts 279°
2026-04-24 13:57 55.13179 52.05909 37619 ft 440 kts 279°
2026-04-24 13:57 55.14583 51.95551 37612 ft 440 kts 279°
2026-04-24 13:58 55.15986 51.85130 37603 ft 440 kts 279°
2026-04-24 13:58 55.17385 51.74669 37603 ft 441 kts 279°
2026-04-24 13:59 55.18772 51.64214 37601 ft 441 kts 279°
2026-04-24 13:59 55.20152 51.53744 37597 ft 442 kts 279°
2026-04-24 14:00 55.21525 51.43254 37595 ft 442 kts 279°
2026-04-24 14:00 55.22890 51.32740 37593 ft 442 kts 279°
2026-04-24 14:01 55.24238 51.22283 37590 ft 443 kts 279°
2026-04-24 14:01 55.25591 51.11732 37580 ft 443 kts 279°
2026-04-24 14:02 55.26918 51.01183 37577 ft 443 kts 278°
2026-04-24 14:02 55.27943 50.92389 37573 ft 443 kts 278°
2026-04-24 14:03 55.29183 50.81782 37574 ft 443 kts 278°
2026-04-24 14:03 55.30417 50.71160 37571 ft 444 kts 278°
2026-04-24 14:04 55.31643 50.60520 37559 ft 444 kts 278°
2026-04-24 14:04 55.32850 50.49960 37564 ft 444 kts 278°
2026-04-24 14:05 55.34058 50.39299 37561 ft 445 kts 278°
2026-04-24 14:05 55.35257 50.28631 37560 ft 445 kts 278°
2026-04-24 14:06 55.36447 50.17955 37552 ft 445 kts 278°
2026-04-24 14:06 55.37629 50.07260 37547 ft 446 kts 278°
2026-04-24 14:07 55.38746 49.96524 37538 ft 444 kts 272°
2026-04-24 14:07 55.39128 49.87544 37542 ft 444 kts 272°
2026-04-24 14:08 55.39461 49.80854 37539 ft 444 kts 272°
2026-04-24 14:08 55.40019 49.70013 37534 ft 444 kts 272°
2026-04-24 14:09 55.40575 49.59149 37532 ft 445 kts 272°
2026-04-24 14:09 55.41117 49.48367 37526 ft 445 kts 272°
2026-04-24 14:10 55.41652 49.37497 37528 ft 445 kts 271°
2026-04-24 14:10 55.42145 49.26626 37529 ft 446 kts 271°
2026-04-24 14:11 55.42633 49.15729 37524 ft 446 kts 271°
2026-04-24 14:12 55.43346 48.99378 37524 ft 446 kts 271°
2026-04-24 14:12 55.43810 48.88485 37521 ft 447 kts 271°
2026-04-24 14:13 55.44264 48.77576 37507 ft 447 kts 271°
2026-04-24 14:13 55.44709 48.66651 37495 ft 447 kts 271°
2026-04-24 14:14 55.45154 48.55714 37491 ft 448 kts 274°
2026-04-24 14:14 55.45831 48.50351 37488 ft 450 kts 286°
2026-04-24 14:14 55.47659 48.39833 37489 ft 453 kts 284°
2026-04-24 14:15 55.49488 48.29214 37481 ft 453 kts 284°
2026-04-24 14:15 55.51323 48.18562 37481 ft 453 kts 284°
2026-04-24 14:16 55.53148 48.07906 37476 ft 453 kts 284°
2026-04-24 14:17 55.55868 47.91906 37471 ft 453 kts 284°
2026-04-24 14:17 55.58568 47.75875 37476 ft 454 kts 284°
2026-04-24 14:18 55.60362 47.65148 37465 ft 454 kts 284°
2026-04-24 14:18 55.62142 47.54436 37466 ft 454 kts 284°
2026-04-24 14:19 55.63908 47.43738 37459 ft 454 kts 284°
2026-04-24 14:19 55.65671 47.33001 37456 ft 454 kts 284°
2026-04-24 14:20 55.67428 47.22237 37449 ft 455 kts 284°
2026-04-24 14:20 55.69179 47.11432 37448 ft 455 kts 284°
2026-04-24 14:21 55.70918 47.00648 37444 ft 455 kts 284°
2026-04-24 14:21 55.72650 46.89843 37442 ft 455 kts 283°
2026-04-24 14:22 55.74375 46.79012 37440 ft 455 kts 283°
2026-04-24 14:23 55.76933 46.62820 37437 ft 455 kts 283°
2026-04-24 14:23 55.78633 46.51975 37430 ft 456 kts 283°
2026-04-24 14:24 55.79594 46.40951 37434 ft 451 kts 271°
2026-04-24 14:24 55.79985 46.29796 37431 ft 453 kts 271°
2026-04-24 14:25 55.80346 46.18680 37423 ft 453 kts 271°
2026-04-24 14:25 55.80696 46.07502 37416 ft 453 kts 271°
2026-04-24 14:26 55.81035 45.96311 37409 ft 453 kts 271°
2026-04-24 14:26 55.81365 45.85116 37419 ft 453 kts 271°
2026-04-24 14:27 55.81685 45.73905 37408 ft 453 kts 271°
2026-04-24 14:27 55.81994 45.62691 37413 ft 453 kts 271°
2026-04-24 14:28 55.82292 45.51516 37404 ft 454 kts 271°
2026-04-24 14:28 55.82581 45.40297 37403 ft 454 kts 271°
2026-04-24 14:29 55.82861 45.29060 37396 ft 454 kts 271°
2026-04-24 14:29 55.83130 45.17839 37408 ft 454 kts 271°
2026-04-24 14:30 55.83347 45.08496 37401 ft 453 kts 271°
2026-04-24 14:30 55.83639 44.95475 37401 ft 454 kts 271°
2026-04-24 14:31 55.83884 44.84263 37404 ft 454 kts 271°
2026-04-24 14:31 55.84120 44.73040 37401 ft 453 kts 271°
2026-04-24 14:32 55.84346 44.61822 37402 ft 454 kts 271°
2026-04-24 14:32 55.84561 44.50588 37407 ft 454 kts 271°
2026-04-24 14:33 55.84766 44.39422 37406 ft 454 kts 271°
2026-04-24 14:33 55.84961 44.28179 37402 ft 454 kts 271°
2026-04-24 14:34 55.85146 44.16961 37402 ft 454 kts 271°
2026-04-24 14:34 55.85321 44.05718 37408 ft 454 kts 271°
2026-04-24 14:35 55.85486 43.94472 37411 ft 454 kts 271°
2026-04-24 14:35 55.85639 43.83309 37412 ft 453 kts 271°
2026-04-24 14:36 55.85780 43.72367 37417 ft 453 kts 270°
2026-04-24 14:36 55.85915 43.61125 37415 ft 453 kts 271°
2026-04-24 14:37 55.86042 43.49907 37414 ft 453 kts 271°
2026-04-24 14:37 55.86161 43.38692 37412 ft 453 kts 271°
2026-04-24 14:38 55.86272 43.27465 37424 ft 453 kts 271°
2026-04-24 14:38 55.86373 43.16315 37424 ft 453 kts 271°
2026-04-24 14:39 55.86463 43.05096 37425 ft 453 kts 271°
2026-04-24 14:39 55.86543 42.93874 37432 ft 453 kts 271°
2026-04-24 14:40 55.86614 42.82649 37432 ft 453 kts 271°
2026-04-24 14:40 55.86674 42.71423 37439 ft 453 kts 271°
2026-04-24 14:41 55.86724 42.60210 37450 ft 453 kts 271°
2026-04-24 14:41 55.86763 42.49054 37453 ft 453 kts 271°
2026-04-24 14:42 55.86789 42.39650 37454 ft 453 kts 271°
2026-04-24 14:42 55.86812 42.26602 37464 ft 453 kts 271°
2026-04-24 14:43 55.86821 42.15368 37469 ft 453 kts 271°
2026-04-24 14:43 55.86820 42.04208 37475 ft 453 kts 271°
2026-04-24 14:44 55.86809 41.92964 37476 ft 453 kts 271°
2026-04-24 14:44 55.86791 41.81727 37481 ft 453 kts 271°
2026-04-24 14:45 55.86489 41.70506 37495 ft 454 kts 268°
2026-04-24 14:45 55.86208 41.61102 37492 ft 454 kts 268°
2026-04-24 14:46 55.85876 41.49946 37498 ft 454 kts 268°
2026-04-24 14:46 55.85531 41.38712 37501 ft 454 kts 268°
2026-04-24 14:47 55.85175 41.27454 37505 ft 455 kts 268°
2026-04-24 14:47 55.84810 41.16218 37511 ft 455 kts 268°
2026-04-24 14:48 55.84434 41.04980 37520 ft 455 kts 269°
2026-04-24 14:48 55.84048 40.93725 37517 ft 455 kts 268°
2026-04-24 14:49 55.83651 40.82480 37524 ft 455 kts 268°
2026-04-24 14:49 55.83248 40.71296 37506 ft 457 kts 268°
2026-04-24 14:49 55.83041 40.65651 37265 ft 454 kts 268°
2026-04-24 14:50 55.82823 40.60080 36877 ft 447 kts 268°
2026-04-24 14:50 55.82604 40.54617 36519 ft 440 kts 268°
2026-04-24 14:50 55.82386 40.49211 36053 ft 437 kts 268°
2026-04-24 14:50 55.82168 40.43838 35501 ft 435 kts 268°
2026-04-24 14:51 55.81948 40.38481 34991 ft 433 kts 268°
2026-04-24 14:51 55.81727 40.33146 34351 ft 435 kts 268°
2026-04-24 14:51 55.81499 40.27722 33625 ft 443 kts 268°
2026-04-24 14:51 55.81267 40.22243 32762 ft 446 kts 268°
2026-04-24 14:52 55.81030 40.16729 32016 ft 447 kts 268°
2026-04-24 14:52 55.80791 40.11203 31328 ft 447 kts 268°
2026-04-24 14:52 55.80551 40.05721 30616 ft 447 kts 268°
2026-04-24 14:52 55.80306 40.00164 29883 ft 448 kts 268°
2026-04-24 14:53 55.80059 39.94643 29026 ft 449 kts 267°
2026-04-24 14:53 55.79809 39.89111 28232 ft 447 kts 267°
2026-04-24 14:53 55.79483 39.83666 27898 ft 437 kts 264°
2026-04-24 14:53 55.79123 39.78397 27756 ft 422 kts 265°
2026-04-24 14:54 55.78783 39.73292 27630 ft 409 kts 265°
2026-04-24 14:54 55.78455 39.68361 27511 ft 396 kts 265°
2026-04-24 14:54 55.78136 39.63583 27389 ft 383 kts 265°
2026-04-24 14:54 55.77825 39.58942 27293 ft 371 kts 265°
2026-04-24 14:55 55.77624 39.55961 27219 ft 364 kts 265°
2026-04-24 14:55 55.77231 39.50168 27081 ft 349 kts 265°
2026-04-24 14:55 55.76939 39.45896 26975 ft 338 kts 265°
2026-04-24 14:55 55.76659 39.41805 26879 ft 342 kts 265°
2026-04-24 14:56 55.76365 39.37521 26703 ft 357 kts 265°
2026-04-24 14:56 55.76054 39.33031 26451 ft 374 kts 264°
2026-04-24 14:56 55.75729 39.28377 26235 ft 383 kts 264°
2026-04-24 14:56 55.75399 39.23657 26022 ft 387 kts 264°
2026-04-24 14:57 55.75065 39.18923 25796 ft 386 kts 264°
2026-04-24 14:57 55.74731 39.14203 25544 ft 385 kts 263°
2026-04-24 14:57 55.74395 39.09488 25298 ft 383 kts 263°
2026-04-24 14:57 55.74060 39.04820 25047 ft 381 kts 263°
2026-04-24 14:58 55.73725 39.00163 24802 ft 379 kts 263°
2026-04-24 14:58 55.73389 38.95525 24557 ft 378 kts 263°
2026-04-24 14:58 55.73054 38.90919 24316 ft 376 kts 262°
2026-04-24 14:58 55.72722 38.86375 24075 ft 374 kts 262°
2026-04-24 14:59 55.72381 38.81741 23836 ft 373 kts 262°
2026-04-24 14:59 55.72045 38.77192 23597 ft 371 kts 262°
2026-04-24 14:59 55.71708 38.72668 23368 ft 370 kts 262°
2026-04-24 14:59 55.71376 38.68218 23132 ft 368 kts 262°
2026-04-24 15:00 55.71039 38.63725 22851 ft 367 kts 262°
2026-04-24 15:00 55.70701 38.59238 22563 ft 366 kts 262°
2026-04-24 15:00 55.70362 38.54765 22288 ft 364 kts 262°
2026-04-24 15:00 55.70056 38.50758 22034 ft 363 kts 263°
2026-04-24 15:01 55.69718 38.46330 21758 ft 362 kts 263°
2026-04-24 15:01 55.69377 38.41899 21482 ft 361 kts 263°
2026-04-24 15:01 55.69038 38.37515 21194 ft 360 kts 263°
2026-04-24 15:01 55.68697 38.33125 20941 ft 359 kts 263°
2026-04-24 15:02 55.68356 38.28766 20700 ft 354 kts 263°
2026-04-24 15:02 55.68021 38.24492 20470 ft 346 kts 263°
2026-04-24 15:02 55.67692 38.20304 20237 ft 340 kts 263°
2026-04-24 15:02 55.67367 38.16201 20011 ft 334 kts 263°
2026-04-24 15:03 55.67047 38.12171 19783 ft 328 kts 263°
2026-04-24 15:03 55.66728 38.08175 19549 ft 326 kts 263°
2026-04-24 15:03 55.66410 38.04200 19315 ft 325 kts 263°
2026-04-24 15:03 55.66095 38.00286 19090 ft 324 kts 263°
2026-04-24 15:04 55.65772 37.96293 18861 ft 323 kts 263°
2026-04-24 15:04 55.65457 37.92409 18635 ft 322 kts 263°
2026-04-24 15:04 55.65124 37.88496 18409 ft 321 kts 259°
2026-04-24 15:04 55.64293 37.84852 18189 ft 321 kts 241°
2026-04-24 15:05 55.63194 37.81416 17967 ft 321 kts 242°
2026-04-24 15:05 55.62093 37.77977 17730 ft 320 kts 242°
2026-04-24 15:05 55.60991 37.74577 17479 ft 319 kts 242°
2026-04-24 15:05 55.59883 37.71184 17209 ft 318 kts 242°
2026-04-24 15:06 55.58772 37.67800 16880 ft 317 kts 242°
2026-04-24 15:06 55.57663 37.64427 16507 ft 317 kts 242°
2026-04-24 15:06 55.56533 37.61076 16133 ft 318 kts 237°
2026-04-24 15:06 55.54951 37.58370 15738 ft 321 kts 213°
2026-04-24 15:07 55.52882 37.56905 15346 ft 322 kts 192°
2026-04-24 15:07 55.50671 37.56290 14979 ft 321 kts 189°
2026-04-24 15:07 55.48464 37.55735 14654 ft 318 kts 189°
2026-04-24 15:07 55.46293 37.55214 14533 ft 314 kts 189°
2026-04-24 15:08 55.44120 37.54710 14189 ft 315 kts 188°
2026-04-24 15:08 55.41953 37.54219 13901 ft 314 kts 188°
2026-04-24 15:08 55.39820 37.53741 13655 ft 311 kts 188°
2026-04-24 15:08 55.37676 37.53265 13425 ft 309 kts 188°
2026-04-24 15:09 55.35546 37.52793 13176 ft 308 kts 187°
2026-04-24 15:09 55.33405 37.52790 12896 ft 308 kts 177°
2026-04-24 15:09 55.31266 37.53015 12672 ft 308 kts 178°
2026-04-24 15:09 55.29134 37.53223 12454 ft 305 kts 178°
2026-04-24 15:10 55.27034 37.53419 12224 ft 299 kts 178°
2026-04-24 15:10 55.24973 37.53607 12008 ft 293 kts 178°
2026-04-24 15:10 55.23041 37.53782 11844 ft 286 kts 178°
2026-04-24 15:10 55.21094 37.53891 11807 ft 277 kts 183°
2026-04-24 15:11 55.19152 37.53744 11644 ft 282 kts 183°
2026-04-24 15:11 55.17185 37.53606 11464 ft 283 kts 183°
2026-04-24 15:11 55.15213 37.53481 11177 ft 285 kts 182°
2026-04-24 15:11 55.13228 37.53364 10789 ft 287 kts 182°
2026-04-24 15:12 55.11215 37.53249 10367 ft 291 kts 182°
2026-04-24 15:12 55.07186 37.52698 9606 ft 290 kts 202°
2026-04-24 15:12 55.05577 37.50791 9461 ft 275 kts 234°
2026-04-24 15:13 55.04734 37.47950 9356 ft 257 kts 258°
2026-04-24 15:13 55.04274 37.44988 9273 ft 251 kts 259°
2026-04-24 15:13 55.04053 37.42015 9122 ft 249 kts 283°
2026-04-24 15:13 55.04776 37.39332 9059 ft 242 kts 314°
2026-04-24 15:14 55.06063 37.37576 8983 ft 232 kts 335°
2026-04-24 15:14 55.07592 37.36784 8855 ft 230 kts 355°
2026-04-24 15:14 55.09193 37.36780 8666 ft 230 kts 359°
2026-04-24 15:14 55.10799 37.36790 8408 ft 231 kts 359°
2026-04-24 15:15 55.12407 37.36805 8145 ft 231 kts 359°
2026-04-24 15:15 55.14007 37.36822 7870 ft 230 kts 359°
2026-04-24 15:15 55.15605 37.36841 7616 ft 229 kts 359°
2026-04-24 15:15 55.17193 37.36861 7353 ft 227 kts 359°
2026-04-24 15:16 55.18775 37.36882 7089 ft 226 kts 359°
2026-04-24 15:16 55.20339 37.36903 6831 ft 225 kts 359°
2026-04-24 15:16 55.21892 37.36924 6574 ft 223 kts 359°
2026-04-24 15:16 55.23450 37.36945 6323 ft 222 kts 359°
2026-04-24 15:17 55.24970 37.36965 6070 ft 221 kts 359°
2026-04-24 15:17 55.26501 37.36985 5914 ft 218 kts 359°
2026-04-24 15:17 55.28014 37.37006 5784 ft 217 kts 359°
2026-04-24 15:17 55.29523 37.37026 5666 ft 216 kts 358°
2026-04-24 15:18 55.31015 37.36865 5502 ft 214 kts 342°
2026-04-24 15:18 55.32273 37.35536 5324 ft 214 kts 318°
2026-04-24 15:18 55.33340 37.33694 5176 ft 215 kts 317°
2026-04-24 15:18 55.34410 37.31809 5013 ft 215 kts 317°
2026-04-24 15:19 55.35461 37.29929 4829 ft 215 kts 316°
2026-04-24 15:19 55.36487 37.28076 4701 ft 209 kts 316°
2026-04-24 15:19 55.37483 37.26252 4509 ft 205 kts 316°
2026-04-24 15:19 55.38456 37.24461 4348 ft 198 kts 315°
2026-04-24 15:20 55.39377 37.22755 4175 ft 187 kts 315°
2026-04-24 15:20 55.40252 37.21131 4009 ft 178 kts 316°
2026-04-24 15:20 55.41077 37.19597 3890 ft 168 kts 316°
2026-04-24 15:20 55.41857 37.18143 3717 ft 156 kts 316°
2026-04-24 15:21 55.42575 37.16812 3592 ft 147 kts 316°
2026-04-24 15:21 55.43353 37.15674 3390 ft 145 kts 339°
2026-04-24 15:21 55.44333 37.15562 3220 ft 146 kts
2026-04-24 15:21 55.45329 37.15907 3057 ft 148 kts 11°
2026-04-24 15:22 55.46311 37.16464 2881 ft 149 kts 15°
2026-04-24 15:22 55.47275 37.17129 2687 ft 149 kts 17°
2026-04-24 15:22 55.48226 37.17835 2459 ft 148 kts 17°
2026-04-24 15:23 55.50076 37.19235 2163 ft 138 kts 17°
2026-04-24 15:23 55.51829 37.20564 2040 ft 137 kts 18°
2026-04-24 15:23 55.52706 37.21231 1959 ft 137 kts 18°
2026-04-24 15:24 55.55366 37.23253 1409 ft 143 kts 19°
2026-04-24 15:25 55.56914 37.24433 1079 ft 146 kts 20°
2026-04-24 15:25 55.59077 37.26093 674 ft 137 kts 20°
2026-04-24 15:26 55.60480 37.27160 664 ft 50 kts 23°
2026-04-24 15:27 55.60726 37.27548 664 ft 0 kts 105°
2026-04-24 15:27 55.60718 37.27641 665 ft 14 kts 76°
2026-04-24 15:28 55.60749 37.27846 668 ft 4 kts 140°
2026-04-24 15:29 55.60637 37.28030 680 ft 18 kts 135°
2026-04-24 15:30 55.60360 37.27862 681 ft 18 kts 188°
2026-04-24 15:31 55.60222 37.27998 679 ft 0 kts 70°